Temp
92 92 90 86 90 89 90 89 88 90 91 90 90 89 88 89 89 87 82 80 83 87 88 88 87 88 86 82 84 85 84 84 80 81 85 87 86 85 88 88 86 87 81
93 91 91 90 90 90 88 87 89 88 89 89 89 88 88 88 89 87 83 85 85 87 88 87 88 90 86 86 84 83 82 79 78 78 85 83 80 81 84 84 86 90 90
92 92 92 90 90 90 88 88 90 88 88 89 88 86 85 85 88 88 87 88 89 90 89 89 88 88 85 89 88 88 88 87 83 78 80 83 82 81 82 80 79 81 87
91 92 90 90 90 91 91 89 90 89 87 87 85 85 85 88 89 89 89 88 88 90 90 90 89 88 86 84 86 84 87 85 85 83 83 85 84 82 82 81 79 80 82
87 88 88 88 88 88 89 87 86 86 87 85 84 85 88 89 92 88 89 88 88 88 89 89 90 87 78 77 81 82 83 83 86 84 82 84 84 80 79 83 81 84 82
87 86 87 88 87 87 83 85 82 82 83 86 86 86 85 91 80 76 83 88 89 88 86 87 89 84 82 74 73 73 78 79 79 78 85 84 81 82 77 79 81 78 77
87 87 87 87 86 86 86 84 83 83 86 86 86 87 87 88 73 73 74 88 87 86 86 85 87 93 84 89 76 71 71 69 70 79 77 81 81 84 82 77 75 74 79
86 87 87 87 86 86 85 84 84 84 84 84 85 86 87 87 65 67 71 84 85 85 86 86 86 86 80 79 83 83 84 85 82 81 81 82 83 84 83 81 80 77 76
87 86 87 87 86 86 85 85 85 84 84 85 86 86 85 82 62 63 69 85 86 86 88 87 85 83 67 62 77 78 79 82 81 73 70 72 70 70 71 79 78 75 76
88 88 89 86 87 86 85 85 86 86 86 88 86 87 79 76 60 61 67 86 85 87 86 86 72 74 60 58 72 73 72 75 79 81 82 79 72 79 68 76 79 76 77
91 90 85 87 86 87 87 86 86 86 87 86 87 85 84 78 68 59 59 78 84 84 85 86 81 59 56 56 56 69 70 70 70 73 77 81 83 84 86 80 80 81 78
84 83 84 85 88 90 86 86 86 85 84 85 84 83 85 79 66 58 57 60 63 78 80 84 79 56 55 54 58 63 61 61 71 72 74 77 80 82 86 83 81 80 79
83 83 83 84 84 85 83 85 86 85 87 85 81 83 84 81 77 57 56 61 59 73 81 70 60 57 56 60 57 58 57 71 71 68 72 75 79 82 80 79 79 79 79
82 83 84 82 79 81 88 88 87 89 85 84 83 84 85 83 81 76 73 71 61 66 69 76 70 65 60 60 67 71 72 71 68 69 68 70 72 74 73 75 74 74 72
82 82 81 80 74 72 68 64 72 75 70 79 85 86 84 81 83 69 71 82 82 67 65 81 80 77 75 73 71 70 69 68 65 67 68 70 71 72 74 76 73 73 70
81 82 84 79 75 71 71 70 54 53 52 50 52 58 72 59 51 47 46 47 48 49 70 79 79 76 73 71 67 66 67 65 65 64 65 65 66 67 69 73 72 71 69
81 81 84 77 84 84 79 74 69 65 52 49 49 49 54 51 47 46 46 46 47 50 75 81 79 78 75 72 70 69 65 65 66 66 64 64 66 66 67 69 69 69 69
83 67 83 85 84 84 85 79 81 76 74 70 52 52 46 45 44 44 44 49 69 64 79 82 81 80 79 75 72 71 71 68 68 65 66 66 65 64 65 66 65 65 65
84 85 86 86 86 81 79 80 81 78 78 76 75 57 50 46 45 45 45 65 80 83 84 84 83 82 81 79 74 75 73 71 71 72 71 69 71 69 66 66 66 56 59
84 74 74 87 85 80 79 77 79 78 77 80 77 76 71 62 69 70 70 75 80 83 84 84 83 82 81 80 79 76 75 77 75 77 72 70 72 73 73 72 72 68 67
87 87 78 85 84 80 79 77 78 77 80 81 80 78 63 72 76 79 80 81 83 84 84 84 83 83 81 81 81 83 83 83 82 82 82 80 80 79 75 75 76 74 72
87 88 86 84 84 77 77 78 75 79 75 74 75 78 56 75 82 83 84 86 86 86 88 84 84 86 86 85 84 83 83 83 82 81 82 82 82 82 82 82 81 77 76
84 86 86 87 85 72 78 77 76 75 78 75 77 74 71 75 81 84 86 87 87 87 87 86 85 86 86 86 87 85 83 83 83 82 81 81 82 80 81 81 81 80 79
86 88 88 87 82 78 72 78 74 66 72 72 74 77 80 83 84 85 87 88 88 88 88 87 87 85 80 82 78 77 73 69 78 82 79 80 80 74 79 79 80 80 79
86 86 86 84 79 76 77 74 69 67 68 69 76 81 84 85 85 87 88 89 89 88 88 86 80 80 76 72 70 66 44 33 56 45 75 78 78 75 78 76 74 74 76
85 86 85 77 79 70 69 68 66 67 71 77 79 75 81 82 85 87 88 88 87 83 81 78 73 71 70 67 57 41 33 33 51 35 53 74 75 74 75 72 73 72 69
MSLP
1009.06 1009.40 1010.01 1011.21 1011.47 1012.01 1011.80 1012.35 1012.71 1012.67 1012.74 1013.21 1013.54 1013.93 1014.07 1013.99 1014.13 1014.26 1014.57 1014.57 1014.33 1014.38 1014.47 1014.40 1014.39 1014.46 1014.77 1014.78 1014.82 1014.74 1014.28 1014.10 1013.90 1013.53 1013.29 1013.36 1014.06 1014.39 1014.14 1014.37 1014.64 1014.58 1015.22
1008.36 1008.93 1009.48 1010.19 1010.68 1011.12 1011.60 1011.80 1012.42 1012.69 1012.94 1013.26 1013.55 1013.70 1013.86 1013.74 1013.79 1014.16 1014.38 1014.05 1014.04 1013.98 1014.05 1014.21 1014.01 1014.07 1014.28 1014.33 1014.36 1014.25 1014.24 1014.32 1014.35 1013.83 1013.53 1013.71 1013.86 1013.67 1013.95 1014.38 1014.23 1014.09 1013.99
1008.36 1008.79 1009.07 1009.58 1009.97 1010.25 1011.16 1011.39 1011.56 1012.36 1012.82 1012.93 1013.13 1013.53 1013.55 1013.68 1013.61 1013.80 1013.84 1013.69 1013.66 1013.53 1013.58 1013.62 1013.62 1013.61 1013.76 1013.73 1013.63 1013.49 1013.37 1013.47 1013.64 1013.95 1013.68 1013.52 1013.44 1013.71 1013.99 1014.33 1014.60 1014.59 1014.13
1008.09 1008.37 1008.74 1009.16 1009.44 1009.77 1010.09 1010.67 1011.13 1011.67 1012.29 1012.53 1012.93 1013.23 1013.42 1013.29 1013.23 1013.36 1013.40 1013.47 1013.60 1013.45 1013.41 1013.41 1013.44 1013.43 1013.59 1013.86 1013.75 1013.63 1013.45 1013.49 1013.36 1013.48 1013.25 1012.91 1012.92 1013.32 1013.61 1013.63 1013.80 1014.07 1013.90
1008.13 1008.26 1008.33 1008.76 1009.28 1009.56 1009.88 1010.49 1011.01 1011.47 1011.66 1012.28 1012.69 1012.81 1012.70 1012.83 1012.76 1012.92 1013.09 1013.12 1013.09 1013.16 1013.13 1013.02 1012.88 1013.01 1013.15 1013.57 1013.82 1013.57 1013.46 1013.49 1013.27 1013.15 1012.94 1012.44 1012.34 1012.84 1012.94 1012.79 1012.95 1012.84 1012.84
1007.79 1008.06 1008.37 1008.63 1008.99 1009.29 1010.00 1010.13 1010.74 1011.03 1011.37 1011.52 1011.80 1012.04 1012.49 1012.19 1012.01 1012.47 1012.82 1012.81 1012.55 1012.57 1012.62 1012.78 1012.65 1012.56 1012.55 1012.70 1012.82 1012.92 1013.20 1013.44 1013.30 1013.23 1012.30 1011.74 1011.67 1011.95 1012.10 1012.18 1011.93 1012.13 1012.02
1007.31 1007.63 1007.98 1008.38 1008.72 1009.01 1009.46 1009.76 1010.03 1010.36 1010.43 1010.67 1011.04 1011.35 1011.52 1011.83 1012.01 1012.35 1012.55 1012.58 1012.53 1012.44 1012.38 1012.45 1012.44 1011.83 1011.75 1011.94 1012.37 1012.76 1012.81 1012.80 1012.95 1013.02 1012.56 1011.93 1011.43 1011.37 1011.58 1011.72 1011.79 1011.89 1011.67
1007.03 1007.16 1007.35 1007.79 1008.20 1008.55 1008.84 1009.17 1009.45 1009.80 1010.01 1010.29 1010.59 1010.90 1011.15 1011.37 1012.02 1012.13 1012.47 1012.53 1012.36 1012.24 1012.17 1012.05 1012.10 1012.10 1012.57 1012.57 1012.44 1012.16 1011.95 1011.73 1011.70 1011.79 1011.53 1011.24 1011.22 1011.22 1011.25 1011.36 1011.34 1011.36 1011.45
1006.68 1006.95 1007.06 1007.12 1007.47 1007.89 1008.11 1008.31 1008.65 1009.09 1009.43 1009.73 1009.99 1010.33 1010.70 1011.48 1012.70 1012.77 1012.66 1012.06 1011.59 1011.36 1011.47 1011.77 1012.17 1012.45 1012.76 1012.84 1012.66 1012.28 1011.87 1011.38 1010.67 1010.51 1010.44 1010.18 1010.42 1010.52 1010.83 1011.09 1010.93 1011.03 1010.83
1006.06 1006.18 1006.48 1006.75 1006.79 1006.99 1007.31 1007.58 1007.99 1008.36 1008.68 1009.03 1009.40 1009.78 1010.22 1011.50 1012.27 1012.64 1012.64 1011.70 1011.20 1011.08 1011.20 1011.47 1011.89 1012.41 1013.19 1013.18 1013.06 1012.74 1012.23 1011.65 1010.93 1010.25 1009.92 1009.91 1009.93 1009.88 1010.10 1010.23 1010.22 1010.32 1010.12
1005.42 1005.44 1005.84 1006.12 1006.46 1006.37 1006.65 1007.09 1007.51 1007.90 1008.02 1008.51 1008.64 1009.13 1010.13 1010.75 1011.93 1012.20 1012.28 1012.00 1011.53 1011.49 1011.14 1010.95 1011.79 1013.01 1013.36 1013.32 1013.18 1012.93 1012.30 1012.04 1011.69 1011.19 1010.54 1009.73 1009.15 1008.70 1008.70 1009.03 1009.19 1009.12 1009.30
1005.97 1005.72 1005.61 1005.66 1005.70 1005.72 1006.16 1006.47 1006.86 1007.31 1007.69 1007.91 1008.33 1008.97 1009.52 1010.66 1011.53 1012.26 1012.42 1012.38 1012.30 1012.08 1011.69 1011.42 1011.78 1012.45 1012.80 1012.73 1012.65 1012.38 1012.29 1012.22 1011.56 1010.81 1010.18 1009.17 1008.61 1008.14 1007.62 1008.08 1008.50 1008.71 1008.62
1006.28 1005.85 1005.41 1005.50 1005.32 1005.41 1005.81 1006.11 1006.55 1007.05 1007.13 1007.66 1008.24 1008.86 1009.11 1010.40 1011.57 1012.21 1012.54 1012.55 1012.54 1012.29 1011.78 1012.02 1012.25 1012.24 1012.03 1012.18 1011.81 1011.63 1011.58 1011.17 1010.70 1010.54 1009.46 1008.76 1008.36 1007.98 1008.07 1008.23 1008.23 1008.18 1008.25
1006.14 1005.74 1005.48 1005.20 1005.18 1005.40 1005.52 1005.71 1006.04 1006.19 1007.05 1007.69 1008.25 1008.41 1008.77 1009.73 1010.48 1011.73 1012.01 1012.32 1012.52 1012.33 1011.84 1011.47 1011.42 1011.57 1011.23 1011.58 1011.53 1011.08 1010.80 1010.56 1010.25 1009.62 1009.40 1008.97 1008.59 1008.35 1008.12 1008.08 1008.01 1008.14 1008.23
1005.99 1005.78 1005.50 1005.62 1005.77 1006.01 1006.29 1006.90 1006.48 1007.07 1007.57 1008.08 1007.97 1008.11 1008.62 1009.42 1009.68 1010.32 1010.83 1010.99 1011.28 1012.04 1011.94 1011.04 1010.63 1010.75 1010.51 1011.22 1011.54 1011.08 1010.76 1010.69 1010.49 1009.95 1009.52 1008.73 1008.22 1008.16 1007.91 1007.82 1007.85 1007.92 1008.14
1005.71 1005.65 1005.02 1005.46 1005.85 1006.02 1006.54 1007.10 1007.48 1008.06 1009.00 1008.78 1008.58 1008.60 1009.03 1009.49 1009.87 1010.49 1011.32 1011.70 1012.34 1012.67 1012.15 1010.88 1010.26 1010.42 1010.51 1011.34 1011.60 1011.18 1010.78 1010.85 1010.80 1010.34 1009.70 1009.37 1008.94 1008.58 1008.29 1007.85 1007.87 1008.03 1008.12
1005.35 1005.29 1004.90 1005.01 1004.74 1004.65 1005.72 1006.71 1007.51 1008.51 1008.83 1009.29 1009.28 1008.81 1009.53 1010.38 1010.65 1011.19 1011.92 1012.21 1012.52 1013.01 1011.72 1010.16 1009.79 1009.81 1010.37 1011.30 1011.41 1011.08 1010.79 1010.70 1010.62 1010.49 1010.04 1009.68 1009.32 1009.10 1008.75 1008.36 1008.22 1008.24 1008.17
1004.70 1004.73 1004.77 1004.19 1004.46 1004.46 1004.59 1005.49 1006.07 1007.40 1008.19 1008.92 1009.69 1010.21 1010.49 1010.80 1011.18 1011.58 1012.04 1012.42 1012.02 1012.04 1010.87 1009.60 1009.13 1009.20 1009.84 1010.50 1011.01 1010.63 1010.55 1010.74 1010.48 1010.51 1009.90 1009.60 1009.49 1009.29 1009.05 1008.87 1008.86 1008.84 1008.76
1003.95 1003.72 1003.71 1003.77 1003.88 1004.04 1005.02 1005.29 1005.63 1006.23 1007.10 1008.02 1008.98 1010.21 1010.78 1011.26 1011.74 1011.89 1012.26 1011.93 1010.08 1009.28 1009.06 1008.90 1008.74 1008.97 1009.24 1009.61 1010.26 1010.48 1010.43 1010.34 1010.30 1009.90 1009.55 1009.24 1009.01 1009.22 1009.13 1008.95 1008.86 1009.12 1009.06
1002.96 1003.19 1003.24 1002.96 1003.43 1004.24 1004.83 1005.25 1005.35 1005.67 1006.13 1006.61 1007.69 1008.54 1009.59 1010.88 1010.96 1010.98 1010.83 1010.32 1009.39 1008.68 1008.28 1008.40 1008.32 1008.86 1008.95 1009.40 1009.36 1009.63 1009.67 1009.53 1009.51 1009.24 1009.29 1009.04 1009.01 1008.88 1008.74 1008.77 1008.79 1008.80 1008.97
1001.69 1001.81 1002.51 1002.82 1003.14 1003.72 1004.25 1004.79 1005.21 1005.33 1005.23 1005.62 1006.63 1007.43 1008.07 1009.20 1009.07 1008.95 1008.84 1008.47 1008.25 1007.93 1007.87 1008.01 1008.06 1008.64 1008.82 1008.97 1009.08 1008.58 1008.37 1008.54 1008.50 1008.05 1008.14 1007.97 1007.89 1008.00 1008.43 1008.45 1008.26 1008.49 1008.58
1000.73 1000.64 1000.94 1001.80 1002.32 1003.07 1003.91 1004.45 1004.70 1004.94 1005.44 1005.72 1006.23 1007.03 1007.70 1008.22 1007.54 1007.28 1007.15 1006.78 1007.12 1007.46 1007.30 1007.93 1008.09 1007.92 1008.14 1008.40 1008.74 1008.62 1008.50 1008.37 1008.77 1008.43 1008.27 1007.92 1007.40 1007.39 1007.46 1007.36 1007.43 1007.87 1007.91
1000.15 1000.07 1000.01 1000.20 1001.38 1002.23 1003.09 1003.51 1003.81 1004.49 1004.85 1005.17 1005.50 1006.46 1007.22 1007.15 1006.78 1006.20 1005.77 1005.97 1006.44 1006.75 1007.06 1007.65 1007.70 1007.61 1007.94 1008.42 1008.50 1008.60 1008.67 1008.52 1008.88 1008.88 1008.44 1008.28 1007.66 1007.72 1007.68 1007.33 1007.22 1007.02 1007.01
999.61 999.13 999.13 999.61 1000.80 1002.02 1002.86 1002.90 1003.51 1004.04 1004.52 1004.85 1005.06 1005.50 1005.88 1005.67 1005.63 1005.41 1005.18 1005.19 1005.73 1006.21 1006.72 1007.23 1007.37 1007.38 1007.82 1008.36 1008.60 1009.06 1009.69 1010.17 1009.24 1008.91 1009.05 1008.48 1007.94 1007.78 1007.62 1007.41 1007.18 1006.99 1006.81
999.32 998.45 998.73 999.58 1000.61 1001.67 1002.36 1003.12 1003.87 1004.34 1004.45 1004.78 1004.56 1004.38 1004.25 1004.23 1004.36 1004.24 1004.55 1004.98 1005.47 1006.13 1006.34 1006.90 1007.74 1007.91 1008.80 1009.71 1010.23 1010.62 1011.20 1011.03 1010.64 1010.52 1009.54 1008.88 1008.45 1008.33 1008.02 1007.64 1007.50 1007.47 1007.10
998.84 998.32 998.27 999.90 1000.77 1001.79 1002.48 1003.23 1003.85 1004.27 1004.20 1003.77 1003.32 1003.48 1003.65 1003.63 1003.65 1004.09 1004.54 1005.01 1005.54 1006.69 1007.41 1008.33 1009.23 1009.54 1010.05 1010.69 1011.37 1011.63 1011.37 1011.03 1010.72 1010.66 1010.44 1009.26 1008.91 1008.72 1008.28 1008.03 1007.96 1008.08 1008.02
Wind_Speed
14 12 11 11 14 12 10 11 10 9 8 7 6 6 8 9 8 6 5 4 5 6 7 5 7 5 5 4 6 7 7 5 4 4 3 2 5 6 5 5 8 7 8
13 12 13 13 12 13 11 10 13 10 9 9 9 9 9 9 6 7 7 9 9 7 8 8 7 6 9 8 7 7 6 4 4 8 7 6 5 7 7 6 6 6 8
11 14 14 14 14 13 13 10 12 11 11 12 10 7 10 7 8 8 8 9 8 9 9 8 9 9 8 9 7 7 8 8 7 5 8 5 5 4 5 4 4 8 8
11 12 11 13 13 13 12 11 12 11 11 10 7 9 11 10 9 9 9 9 9 10 9 10 10 10 10 9 10 9 9 8 8 8 8 8 7 5 5 6 7 7 8
9 8 9 10 10 11 8 9 9 9 10 12 11 12 10 9 10 11 10 10 9 10 10 10 11 11 9 7 6 10 9 8 9 9 9 9 7 7 8 7 8 8 10
12 12 9 9 10 10 9 9 9 9 10 12 11 11 10 10 5 7 7 9 8 8 8 10 11 11 12 14 12 13 12 9 10 9 11 11 9 7 5 7 8 6 8
12 12 11 11 11 10 11 11 12 13 13 12 12 12 12 11 3 7 8 9 10 10 9 9 10 11 6 10 6 12 12 13 14 13 13 13 12 10 8 7 8 8 9
12 12 12 12 12 12 12 12 11 11 11 10 11 11 10 8 8 8 6 9 10 11 11 11 10 11 6 7 9 12 13 13 12 12 14 15 14 12 10 10 10 8 6
12 12 13 13 13 13 13 12 12 10 10 11 10 11 10 7 6 2 3 8 10 10 7 8 9 10 7 9 9 13 15 15 13 13 15 16 13 12 9 5 9 8 10
11 12 12 13 13 14 13 12 11 11 11 11 12 11 7 10 8 3 5 6 7 6 6 6 8 5 7 8 6 10 12 14 14 13 14 11 12 13 13 11 11 11 10
10 12 11 12 13 13 12 11 11 12 11 11 11 8 9 11 9 8 4 4 5 5 5 5 7 10 5 3 1 9 13 12 15 14 13 12 12 12 12 10 11 12 11
8 8 9 11 12 12 13 12 12 12 12 11 10 10 8 8 10 7 5 1 2 4 5 5 5 11 8 8 8 10 11 9 10 11 11 12 11 12 8 6 7 8 9
10 11 9 10 11 12 13 12 12 12 11 11 8 9 9 7 7 9 8 7 6 4 3 4 6 9 12 12 12 13 11 8 8 9 10 11 10 11 10 8 8 11 10
11 10 11 10 10 11 12 13 13 13 11 9 11 10 9 9 9 8 8 7 10 8 6 5 4 8 5 5 8 8 4 7 7 8 7 9 9 7 6 6 6 6 4
10 10 7 4 3 4 4 6 3 6 2 7 9 9 9 9 9 7 4 7 3 2 4 3 2 4 7 6 7 7 7 7 6 7 8 8 5 5 5 5 5 5 5
9 9 7 5 4 1 3 2 11 11 7 12 8 4 5 5 13 15 12 11 5 4 5 2 2 4 6 6 7 7 6 7 7 6 5 4 5 5 6 6 5 5 4
11 9 8 5 8 6 5 5 4 3 9 8 8 8 5 11 13 14 10 5 4 5 9 2 2 3 4 4 6 5 5 4 5 6 4 4 5 5 6 6 5 5 5
14 7 9 8 7 7 6 5 4 6 7 5 4 1 7 11 10 8 6 2 5 8 11 1 2 3 2 2 4 6 6 5 6 5 4 4 3 3 5 4 3 4 4
13 10 10 9 8 3 6 7 7 8 9 9 9 4 8 8 6 3 2 7 10 5 4 2 2 1 2 2 3 3 4 5 4 4 3 3 4 3 4 4 3 2 3
14 12 8 8 6 5 7 8 9 8 8 10 10 11 10 8 7 8 8 10 9 6 4 2 2 1 1 1 3 5 4 2 3 1 2 2 3 4 4 4 4 4 4
12 12 15 10 10 9 8 9 9 8 10 11 11 12 14 11 10 11 11 10 8 6 4 2 3 1 4 3 4 4 4 5 5 4 2 3 3 3 1 2 4 4 5
12 13 12 10 10 10 10 11 9 11 8 9 9 11 21 11 10 11 9 8 8 5 2 3 3 3 2 2 2 4 4 4 5 6 6 6 5 7 6 4 1 2 1
11 12 10 10 10 7 10 9 8 11 12 9 7 10 9 9 10 9 8 9 7 6 6 5 4 4 5 2 1 0 2 4 4 4 6 7 7 5 7 6 6 5 5
14 15 11 9 9 8 8 10 8 7 8 6 6 10 13 11 11 12 10 7 7 7 7 5 5 2 4 3 6 7 9 10 8 7 10 8 8 3 7 9 10 10 7
15 13 10 9 8 9 11 10 7 8 9 9 12 14 11 11 11 10 8 6 6 7 8 7 8 12 15 11 10 10 9 9 9 10 9 11 11 12 12 9 8 10 10
14 15 6 6 9 6 8 8 9 8 9 12 5 3 8 8 7 7 9 6 6 10 11 10 11 13 11 10 10 8 5 8 8 6 6 7 8 9 10 11 14 11 11
Wind_Direction
201 197 202 187 200 212 213 192 222 240 203 226 216 218 242 241 215 221 246 286 217 252 279 247 227 240 258 239 216 246 280 318 281 286 19 136 169 232 240 223 194 213 178
199 201 198 196 200 189 219 202 192 224 219 219 224 217 224 232 223 215 215 257 213 217 235 245 257 245 224 234 243 245 273 309 302 293 291 297 243 226 252 241 266 246 256
201 202 202 197 198 193 199 219 200 198 220 219 220 228 247 241 216 230 234 242 252 250 250 260 260 258 252 269 264 247 233 227 232 260 277 277 239 224 207 218 253 256 262
209 203 204 205 204 208 205 199 206 194 207 227 223 226 242 219 223 233 243 240 254 262 265 271 270 263 257 258 256 258 250 268 263 246 253 260 240 217 209 242 222 225 248
203 215 210 200 211 205 215 196 211 219 212 205 213 226 225 232 232 220 240 260 252 260 265 264 257 253 300 288 267 263 290 259 264 252 256 275 249 205 215 227 238 256 209
200 204 210 204 209 215 198 199 201 201 213 218 215 219 216 239 235 197 229 265 251 256 278 275 264 253 236 231 236 245 254 265 262 277 277 258 264 268 253 234 245 215 245
209 209 204 202 206 208 202 200 201 203 213 208 214 218 222 230 165 181 185 236 252 256 251 259 272 278 311 298 286 252 264 256 242 259 269 268 276 269 264 251 243 244 248
216 208 198 198 204 203 201 207 210 211 215 214 215 221 225 222 137 156 175 237 246 256 262 271 268 277 9 356 308 282 271 265 246 240 237 249 259 270 259 257 253 247 250
223 219 209 197 198 200 203 201 203 207 212 215 217 218 219 153 87 79 220 241 238 236 266 296 305 302 46 18 313 294 289 286 289 280 249 238 247 257 263 273 255 243 248
231 223 218 213 201 199 201 200 200 200 208 211 210 213 202 134 142 159 250 258 258 261 273 258 238 307 79 60 335 299 286 284 293 294 299 272 256 252 223 237 244 257 244
239 231 219 217 217 205 199 197 197 203 209 209 208 196 164 163 160 166 140 235 263 286 284 293 68 62 22 0 281 279 274 305 293 288 287 277 272 259 236 222 232 232 243
317 295 249 220 222 211 207 198 200 203 208 200 202 185 188 162 143 176 167 152 76 271 294 317 348 4 328 291 270 263 265 275 275 274 271 265 264 273 287 288 255 245 248
296 285 269 245 231 232 212 206 202 203 216 212 191 206 197 186 172 145 187 189 206 242 307 347 288 277 265 269 235 252 251 254 267 262 257 258 264 269 298 281 262 259 264
294 276 267 249 242 232 222 214 214 208 206 199 208 216 198 189 179 182 198 204 238 225 211 219 248 268 265 272 306 329 320 326 307 279 271 267 272 274 264 270 262 253 249
293 296 312 318 12 305 24 350 217 358 359 226 218 210 206 196 194 141 161 194 182 100 282 227 25 10 17 359 335 338 339 345 333 339 332 328 306 294 288 282 278 263 241
276 266 235 227 224 242 287 182 73 72 29 37 47 69 58 62 119 98 84 79 69 294 233 212 44 40 22 357 336 338 345 338 329 323 332 326 337 344 330 315 307 272 262
258 273 283 227 270 210 193 196 218 79 59 70 34 43 83 130 108 106 115 133 220 280 250 139 68 46 32 353 336 348 337 315 321 316 332 348 353 342 333 340 338 316 304
252 232 264 253 215 256 241 218 231 192 184 178 119 2 114 116 107 115 123 131 201 208 259 167 80 59 45 6 326 357 10 358 355 334 347 352 351 336 346 350 342 340 338
243 236 223 232 249 256 201 246 210 178 179 185 166 176 118 95 98 110 149 250 258 223 203 218 127 44 69 312 106 345 14 4 346 358 4 12 16 3 3 7 19 50 327
234 244 282 250 224 225 210 222 222 229 198 203 188 190 160 160 185 193 212 228 247 241 166 228 106 351 93 302 288 192 181 206 130 272 62 68 26 18 32 31 31 22 29
229 229 197 224 241 202 205 205 215 239 213 200 195 185 163 183 199 203 199 211 223 226 177 230 88 230 205 211 283 314 354 4 2 17 4 101 135 82 28 3 44 37 30
227 233 186 208 230 174 192 212 207 205 199 199 190 174 165 201 211 214 206 206 188 223 193 163 244 211 59 42 329 349 335 31 13 359 359 351 11 1 350 345 236 141 105
232 231 224 191 216 181 198 222 191 192 198 203 181 163 180 194 229 253 209 194 205 196 173 196 198 214 152 183 239 173 301 20 358 355 350 335 341 28 317 335 324 340 337
232 236 234 194 195 210 208 212 184 172 197 186 202 169 192 198 206 231 228 206 185 190 179 187 219 144 97 239 34 66 39 2 332 328 349 324 314 327 330 319 322 330 302
247 250 215 190 210 203 193 180 179 206 196 207 215 187 196 192 208 217 176 207 163 195 180 91 51 51 58 46 39 28 20 351 340 329 295 300 306 322 308 308 332 329 331
232 251 199 167 194 171 178 175 178 182 220 238 203 224 221 198 170 162 170 163 145 86 80 66 58 53 43 52 33 4 354 359 358 343 310 304 308 298 309 322 324 322 324